Regional Weather Roundup
Issued by NWS

Home | Current Version | Previous Version | Graphics & Text | Print | Product List | Glossary On
Versions: 1 2 3 4 5 6 7 8 9 10 11 12 13 14 15 16 17 18 19 20 21 22 23 24 25 26 27 28 29 30 31 32 33 34 35 36 37 38 39 40 41 42 43 44 45 46 47 48 49 50
000
ASUS43 KLSX 271259
RWRMO

WEATHER SUMMARY FOR MISSOURI
NATIONAL WEATHER SERVICE SPRINGFIELD MO
700 AM CST SAT DEC 27 2014

NOTE: "FAIR" INDICATES FEW OR NO CLOUDS BELOW 12,000 FEET WITH NO
       SIGNIFICANT WEATHER AND/OR OBSTRUCTIONS TO VISIBILITY.
       CURRENT SKY AND/OR WEATHER CONDITIONS ARE NOT AVAILABLE FOR
       CHILLICOTHE AND FARMINGTON.

MOZ001>031-035>038-043-044-053-054-271400-
...NORTHERN AND WESTERN MISSOURI...

CITY           SKY/WX    TMP DP  RH WIND       PRES   REMARKS
KANSAS CTY INT CLOUDY    31  27  85 NW10      30.16R WCI  22
KANSAS C DTWN  CLOUDY    34  26  72 W13       30.17F WCI  25
LEE`S SUMMIT   CLOUDY    34  27  75 NW15      30.17R WCI  24
ST JOSEPH      CLOUDY    30  26  85 W12       30.19R WCI  20
CHILLICOTHE      N/A     36  29  75 W9        30.17R WCI  29
KIRKSVILLE     CLOUDY    35  31  85 W7        30.08R WCI  29

$$
MOZ066>068-077>081-088>096-101>105-271400-
...SOUTHWEST MISSOURI...

CITY           SKY/WX    TMP DP  RH WIND       PRES   REMARKS
SPRINGFIELD    LGT RAIN  38  36  92 NW10      30.17R FOG
JOPLIN         CLOUDY    35  31  85 NW10      30.21R WCI  27

$$
MOZ032>034-039>042-045>050-055>058-069>072-271400-
...CENTRAL MISSOURI...

CITY           SKY/WX    TMP DP  RH WIND       PRES   REMARKS
COLUMBIA       CLOUDY    38  34  85 W12G22    30.13R
JEFFERSON CITY CLOUDY    41  35  79 NW14G22   30.14R
ROLLA          CLOUDY    46  43  89 NW18      30.08R
SEDALIA        CLOUDY    37  31  78 NW12      30.17R WCI  29
WARRENSBURG    CLOUDY    34  30  86 W9        30.17R WCI  26
OSAGE BEACH    CLOUDY    41  34  75 W9        30.14R

$$
MOZ051-052-059>065-271400-
...EAST CENTRAL MISSOURI...

CITY           SKY/WX    TMP DP  RH WIND       PRES   REMARKS
ST LOUIS INTL  MOCLDY    49  45  86 S6        30.06S
SPIRIT OF STL  CLOUDY    49  46  90 CALM      30.06R
ST CHARLES     MOCLDY    47  46  97 S5        30.05S

$$
MOZ072>076-082>087-097>100-106>115-271400-
...SOUTH CENTRAL AND SOUTHEAST MISSOURI...

CITY           SKY/WX    TMP DP  RH WIND       PRES   REMARKS
CAPE GIRARDEAU CLOUDY    47  47 100 CALM      30.14S FOG
FARMINGTON     CLOUDY    46  45  93 S6        30.11S VSB 3/4
POPLAR BLUFF   LGT RAIN  48  47  96 CALM      30.11S FOG
WEST PLAINS    FOG       48  47  96 CALM      30.09R VSB 1/4

$$


USA.gov is the U.S. government's official web portal to all federal, state and local government web resources and services.